Find Mohammed VI-A

NORAD ID: 43005 Int'l Des: 2017-070 Owner: RMAF Country: MA operational
LEOCIRCULARRETROGRADESSO

リアルタイム位置

3D地球を読み込み中...

Mohammed VI-Aについて

説明を読み込み中...

次回通過

Passes for default location (London). Set your location on the main map for personalized predictions.

高度履歴

Loading altitude history...

軌道要素

1 43005U 17070A 26121.53675222 .00000536 00000-0 83112-4 0 9994
2 43005 97.9577 194.5055 0001119 98.1052 262.0285 14.77076394457092
Epoch: May 1, 2026 • Age: 4 hours

現在のステータス

高度 660.5 km
速度 7.53 km/s
衛星直下点 -54.97°S, 114.35°W
打ち上げ日 Nov 8, 2017
運用期間 8.4 years
タイプ other

技術仕様

分類 Payload
質量 1110.00 kg
乾燥質量 900.00 kg
総質量 1110.00 kg
長さ 4.00 m
直径 2.00 m
スパン 8.00 m
形状 Hex-cyl+3 panels
製造者 ADST
バスタイプ Astrosat-1000
フェーズステータス In Orbit
所有者/国 RMAF/MA

Most Searched